LOCATION_NAME,SAMPLE COLLECTION TIME,DOSE EQUIVALENT RATE (nSv/h),GAMMA COUNT RATE R02 (CPM),GAMMA COUNT RATE R03 (CPM),GAMMA COUNT RATE R04 (CPM),GAMMA COUNT RATE R05 (CPM),GAMMA COUNT RATE R06 (CPM),GAMMA COUNT RATE R07 (CPM),GAMMA COUNT RATE R08 (CPM),GAMMA COUNT RATE R09 (CPM),STATUS
IN: INDIANAPOLIS,01/01/2020 00:20:00,,1498.00,885.00,256.00,132.00,83.00,104.00,61.00,31.00,APPROVED
IN: INDIANAPOLIS,01/01/2020 01:20:00,,1487.00,879.00,258.00,132.00,81.00,105.00,60.00,30.00,APPROVED
IN: INDIANAPOLIS,01/01/2020 02:20:00,,1486.00,870.00,258.00,131.00,80.00,105.00,61.00,31.00,APPROVED
IN: INDIANAPOLIS,01/01/2020 03:20:00,,1479.00,876.00,257.00,133.00,81.00,104.00,59.00,31.00,APPROVED
IN: INDIANAPOLIS,01/01/2020 04:21:00,,1495.00,887.00,260.00,134.00,80.00,106.00,62.00,31.00,APPROVED
IN: INDIANAPOLIS,01/01/2020 05:21:00,,1498.00,880.00,260.00,134.00,82.00,105.00,60.00,33.00,APPROVED
IN: INDIANAPOLIS,01/01/2020 06:21:00,,1513.00,890.00,261.00,133.00,83.00,106.00,60.00,30.00,APPROVED
IN: INDIANAPOLIS,01/01/2020 07:21:00,,1510.00,902.00,263.00,135.00,83.00,108.00,65.00,31.00,APPROVED
IN: INDIANAPOLIS,01/01/2020 08:21:00,,1504.00,893.00,263.00,133.00,81.00,107.00,63.00,31.00,APPROVED
IN: INDIANAPOLIS,01/01/2020 09:22:00,,1523.00,907.00,262.00,135.00,81.00,106.00,63.00,31.00,APPROVED
IN: INDIANAPOLIS,01/01/2020 10:22:00,,1523.00,906.00,265.00,135.00,84.00,107.00,62.00,32.00,APPROVED
IN: INDIANAPOLIS,01/01/2020 11:22:00,,1526.00,922.00,271.00,137.00,84.00,110.00,65.00,31.00,APPROVED
IN: INDIANAPOLIS,01/01/2020 12:22:00,,1524.00,923.00,267.00,141.00,85.00,112.00,64.00,31.00,APPROVED
IN: INDIANAPOLIS,01/01/2020 13:22:00,,1530.00,925.00,268.00,142.00,84.00,113.00,64.00,31.00,APPROVED
IN: INDIANAPOLIS,01/01/2020 14:23:00,,1523.00,911.00,273.00,141.00,82.00,109.00,64.00,30.00,APPROVED
IN: INDIANAPOLIS,01/01/2020 15:23:00,,1559.00,923.00,265.00,140.00,84.00,112.00,64.00,31.00,APPROVED
IN: INDIANAPOLIS,01/01/2020 16:23:00,,1557.00,924.00,265.00,142.00,85.00,109.00,64.00,32.00,APPROVED
IN: INDIANAPOLIS,01/01/2020 17:23:00,,1562.00,923.00,260.00,139.00,82.00,103.00,64.00,33.00,APPROVED
IN: INDIANAPOLIS,01/01/2020 18:23:00,,1557.00,919.00,259.00,138.00,83.00,102.00,65.00,30.00,APPROVED
IN: INDIANAPOLIS,01/01/2020 19:24:00,,1557.00,910.00,257.00,137.00,81.00,101.00,66.00,32.00,APPROVED
IN: INDIANAPOLIS,01/01/2020 20:24:00,,1546.00,906.00,252.00,132.00,81.00,100.00,65.00,31.00,APPROVED
IN: INDIANAPOLIS,01/01/2020 21:24:00,,1558.00,903.00,254.00,133.00,82.00,98.00,64.00,30.00,APPROVED
IN: INDIANAPOLIS,01/01/2020 22:24:00,,1566.00,924.00,259.00,137.00,81.00,102.00,65.00,30.00,APPROVED
IN: INDIANAPOLIS,01/01/2020 23:25:00,,1563.00,914.00,256.00,140.00,82.00,102.00,65.00,31.00,APPROVED
IN: INDIANAPOLIS,01/02/2020 00:25:00,,1553.00,903.00,259.00,136.00,82.00,102.00,65.00,30.00,APPROVED
IN: INDIANAPOLIS,01/02/2020 01:25:00,,1546.00,911.00,253.00,139.00,82.00,100.00,61.00,32.00,APPROVED
IN: INDIANAPOLIS,01/02/2020 02:25:00,,1551.00,909.00,257.00,134.00,81.00,102.00,63.00,30.00,APPROVED
IN: INDIANAPOLIS,01/02/2020 03:25:00,,1551.00,905.00,259.00,135.00,81.00,103.00,64.00,30.00,APPROVED
IN: INDIANAPOLIS,01/02/2020 04:26:00,,1556.00,915.00,262.00,136.00,81.00,102.00,63.00,30.00,APPROVED
IN: INDIANAPOLIS,01/02/2020 05:26:00,,1553.00,907.00,259.00,137.00,82.00,103.00,64.00,32.00,APPROVED
IN: INDIANAPOLIS,01/02/2020 06:26:00,,1565.00,930.00,261.00,138.00,82.00,106.00,62.00,30.00,APPROVED
IN: INDIANAPOLIS,01/02/2020 07:26:00,,1582.00,925.00,266.00,140.00,85.00,105.00,63.00,30.00,APPROVED
IN: INDIANAPOLIS,01/02/2020 08:26:00,,1580.00,930.00,266.00,141.00,84.00,104.00,65.00,30.00,APPROVED
IN: INDIANAPOLIS,01/02/2020 09:27:00,,1586.00,940.00,265.00,137.00,82.00,106.00,65.00,30.00,APPROVED
IN: INDIANAPOLIS,01/02/2020 10:27:00,,1572.00,933.00,266.00,139.00,84.00,105.00,65.00,30.00,APPROVED
IN: INDIANAPOLIS,01/02/2020 11:27:00,,1566.00,921.00,262.00,140.00,82.00,103.00,65.00,31.00,APPROVED
IN: INDIANAPOLIS,01/02/2020 12:27:00,,1553.00,908.00,258.00,137.00,84.00,103.00,65.00,31.00,APPROVED
IN: INDIANAPOLIS,01/02/2020 13:28:00,,1558.00,905.00,253.00,135.00,82.00,97.00,63.00,31.00,APPROVED
IN: INDIANAPOLIS,01/02/2020 14:28:00,,1544.00,900.00,250.00,133.00,80.00,102.00,64.00,29.00,APPROVED
IN: INDIANAPOLIS,01/02/2020 15:28:00,,1529.00,894.00,249.00,132.00,82.00,102.00,64.00,31.00,APPROVED
IN: INDIANAPOLIS,01/02/2020 16:28:00,,1548.00,896.00,253.00,135.00,81.00,98.00,64.00,31.00,APPROVED
IN: INDIANAPOLIS,01/02/2020 17:28:00,,1544.00,899.00,249.00,134.00,81.00,100.00,64.00,31.00,APPROVED
IN: INDIANAPOLIS,01/02/2020 18:29:00,,1554.00,902.00,251.00,135.00,77.00,97.00,66.00,30.00,APPROVED
IN: INDIANAPOLIS,01/02/2020 19:29:00,,1549.00,891.00,247.00,133.00,79.00,97.00,65.00,31.00,APPROVED
IN: INDIANAPOLIS,01/02/2020 20:29:00,,1559.00,903.00,250.00,135.00,81.00,101.00,65.00,31.00,APPROVED
IN: INDIANAPOLIS,01/02/2020 21:29:00,,1559.00,900.00,249.00,135.00,81.00,98.00,65.00,31.00,APPROVED
IN: INDIANAPOLIS,01/02/2020 22:29:00,,1560.00,909.00,253.00,137.00,81.00,100.00,66.00,29.00,APPROVED
IN: INDIANAPOLIS,01/02/2020 23:30:00,,1560.00,907.00,257.00,140.00,81.00,101.00,66.00,31.00,APPROVED
IN: INDIANAPOLIS,01/03/2020 00:30:00,,1554.00,909.00,257.00,140.00,81.00,101.00,66.00,30.00,APPROVED
IN: INDIANAPOLIS,01/03/2020 01:30:00,,1551.00,911.00,258.00,141.00,81.00,102.00,66.00,32.00,APPROVED
IN: INDIANAPOLIS,01/03/2020 02:30:00,,1570.00,923.00,258.00,139.00,82.00,102.00,65.00,31.00,APPROVED
IN: INDIANAPOLIS,01/03/2020 03:32:00,,1577.00,944.00,265.00,147.00,85.00,105.00,68.00,31.00,APPROVED
IN: INDIANAPOLIS,01/03/2020 04:32:00,,1709.00,1053.00,292.00,165.00,91.00,116.00,73.00,34.00,APPROVED
IN: INDIANAPOLIS,01/03/2020 05:32:00,,1948.00,1274.00,345.00,205.00,105.00,141.00,83.00,36.00,APPROVED
IN: INDIANAPOLIS,01/03/2020 06:32:00,,2078.00,1399.00,381.00,232.00,114.00,158.00,91.00,38.00,APPROVED
IN: INDIANAPOLIS,01/03/2020 07:32:00,,2092.00,1417.00,390.00,238.00,120.00,166.00,96.00,38.00,APPROVED
IN: INDIANAPOLIS,01/03/2020 08:33:00,,1998.00,1360.00,378.00,234.00,115.00,156.00,90.00,38.00,APPROVED
IN: INDIANAPOLIS,01/03/2020 09:33:00,,2074.00,1447.00,395.00,249.00,122.00,165.00,98.00,40.00,APPROVED
IN: INDIANAPOLIS,01/03/2020 10:33:00,,2056.00,1443.00,402.00,255.00,123.00,168.00,99.00,41.00,APPROVED
IN: INDIANAPOLIS,01/03/2020 11:33:00,,1969.00,1381.00,386.00,248.00,121.00,164.00,96.00,38.00,APPROVED
IN: INDIANAPOLIS,01/03/2020 12:33:00,,1844.00,1276.00,359.00,223.00,115.00,154.00,90.00,38.00,APPROVED
IN: INDIANAPOLIS,01/03/2020 13:34:00,,1758.00,1216.00,340.00,214.00,106.00,148.00,88.00,38.00,APPROVED
IN: INDIANAPOLIS,01/03/2020 14:34:00,,1725.00,1164.00,322.00,203.00,105.00,142.00,82.00,37.00,APPROVED
IN: INDIANAPOLIS,01/03/2020 15:34:00,,1655.00,1066.00,303.00,181.00,96.00,126.00,77.00,35.00,APPROVED
IN: INDIANAPOLIS,01/03/2020 16:53:00,,1561.00,908.00,248.00,135.00,79.00,99.00,64.00,30.00,APPROVED
IN: INDIANAPOLIS,01/03/2020 17:53:00,,1591.00,968.00,269.00,153.00,87.00,109.00,70.00,31.00,APPROVED
IN: INDIANAPOLIS,01/03/2020 18:53:00,,1605.00,974.00,271.00,155.00,87.00,111.00,71.00,32.00,APPROVED
IN: INDIANAPOLIS,01/03/2020 19:53:00,,1608.00,979.00,275.00,159.00,88.00,111.00,72.00,32.00,APPROVED
IN: INDIANAPOLIS,01/03/2020 20:54:00,,1619.00,991.00,285.00,159.00,89.00,114.00,74.00,32.00,APPROVED
IN: INDIANAPOLIS,01/03/2020 21:54:00,,1669.00,1033.00,291.00,167.00,93.00,121.00,72.00,32.00,APPROVED
IN: INDIANAPOLIS,01/03/2020 22:54:00,,1797.00,1182.00,330.00,199.00,103.00,139.00,84.00,35.00,APPROVED
IN: INDIANAPOLIS,01/03/2020 23:54:00,,1821.00,1211.00,342.00,207.00,107.00,146.00,88.00,35.00,APPROVED
IN: INDIANAPOLIS,01/04/2020 00:55:00,,1790.00,1190.00,343.00,202.00,106.00,142.00,88.00,37.00,APPROVED
IN: INDIANAPOLIS,01/04/2020 01:55:00,,1776.00,1181.00,335.00,200.00,105.00,144.00,84.00,36.00,APPROVED
IN: INDIANAPOLIS,01/04/2020 02:55:00,,1808.00,1227.00,355.00,212.00,108.00,150.00,87.00,37.00,APPROVED
IN: INDIANAPOLIS,01/04/2020 03:55:00,,1803.00,1235.00,352.00,213.00,110.00,152.00,88.00,36.00,APPROVED
IN: INDIANAPOLIS,01/04/2020 04:55:00,,1794.00,1214.00,346.00,213.00,108.00,148.00,86.00,36.00,APPROVED
IN: INDIANAPOLIS,01/04/2020 05:56:00,,1800.00,1209.00,348.00,206.00,106.00,146.00,86.00,38.00,APPROVED
IN: INDIANAPOLIS,01/04/2020 06:56:00,,2072.00,1435.00,414.00,242.00,123.00,171.00,97.00,40.00,APPROVED
IN: INDIANAPOLIS,01/04/2020 07:56:00,,2012.00,1380.00,401.00,233.00,120.00,167.00,94.00,39.00,APPROVED
IN: INDIANAPOLIS,01/04/2020 08:56:00,,1806.00,1198.00,354.00,201.00,106.00,150.00,86.00,36.00,APPROVED
IN: INDIANAPOLIS,01/04/2020 09:57:00,,1762.00,1173.00,343.00,195.00,103.00,143.00,83.00,36.00,APPROVED
IN: INDIANAPOLIS,01/04/2020 10:57:00,,1712.00,1131.00,331.00,189.00,102.00,138.00,80.00,35.00,APPROVED
IN: INDIANAPOLIS,01/04/2020 11:57:00,,1702.00,1130.00,331.00,186.00,97.00,138.00,82.00,36.00,APPROVED
IN: INDIANAPOLIS,01/04/2020 12:57:00,,1658.00,1087.00,320.00,177.00,99.00,137.00,76.00,34.00,APPROVED
IN: INDIANAPOLIS,01/04/2020 13:57:00,,1633.00,1057.00,314.00,175.00,95.00,131.00,75.00,34.00,APPROVED
IN: INDIANAPOLIS,01/04/2020 14:58:00,,1800.00,1200.00,356.00,192.00,106.00,148.00,80.00,37.00,APPROVED
IN: INDIANAPOLIS,01/04/2020 15:58:00,,1756.00,1165.00,346.00,187.00,101.00,143.00,80.00,35.00,APPROVED
IN: INDIANAPOLIS,01/04/2020 16:58:00,,1648.00,1073.00,322.00,172.00,99.00,132.00,74.00,35.00,APPROVED
IN: INDIANAPOLIS,01/04/2020 17:58:00,,1587.00,1002.00,300.00,156.00,91.00,123.00,70.00,34.00,APPROVED
IN: INDIANAPOLIS,01/04/2020 18:58:00,,1537.00,949.00,280.00,147.00,86.00,114.00,67.00,32.00,APPROVED
IN: INDIANAPOLIS,01/04/2020 19:59:00,,1527.00,923.00,272.00,145.00,83.00,109.00,65.00,33.00,APPROVED
IN: INDIANAPOLIS,01/04/2020 20:59:00,,1521.00,915.00,270.00,139.00,82.00,109.00,65.00,31.00,APPROVED
IN: INDIANAPOLIS,01/04/2020 21:59:00,,1533.00,937.00,276.00,142.00,85.00,112.00,65.00,31.00,APPROVED
IN: INDIANAPOLIS,01/04/2020 22:59:00,,1577.00,978.00,291.00,150.00,89.00,117.00,68.00,33.00,APPROVED
IN: INDIANAPOLIS,01/05/2020 00:00:00,,1507.00,909.00,271.00,139.00,85.00,110.00,63.00,31.00,APPROVED
IN: INDIANAPOLIS,01/05/2020 01:00:00,,1489.00,880.00,265.00,133.00,82.00,108.00,60.00,31.00,APPROVED
IN: INDIANAPOLIS,01/05/2020 02:00:00,,1501.00,893.00,265.00,132.00,81.00,108.00,61.00,31.00,APPROVED
IN: INDIANAPOLIS,01/05/2020 03:00:00,,1530.00,923.00,273.00,140.00,83.00,110.00,64.00,32.00,APPROVED
IN: INDIANAPOLIS,01/05/2020 04:00:00,,1581.00,980.00,288.00,150.00,87.00,116.00,66.00,32.00,APPROVED
IN: INDIANAPOLIS,01/05/2020 05:01:00,,1542.00,949.00,287.00,145.00,86.00,114.00,65.00,32.00,APPROVED
IN: INDIANAPOLIS,01/05/2020 06:01:00,,1489.00,900.00,270.00,138.00,82.00,109.00,62.00,32.00,APPROVED
IN: INDIANAPOLIS,01/05/2020 07:01:00,,1460.00,861.00,258.00,129.00,80.00,102.00,61.00,31.00,APPROVED
IN: INDIANAPOLIS,01/05/2020 08:01:00,,1450.00,849.00,249.00,124.00,78.00,102.00,56.00,30.00,APPROVED
IN: INDIANAPOLIS,01/05/2020 09:01:00,,1448.00,838.00,249.00,123.00,78.00,99.00,58.00,31.00,APPROVED
IN: INDIANAPOLIS,01/05/2020 10:02:00,,1453.00,852.00,248.00,125.00,78.00,101.00,58.00,30.00,APPROVED
IN: INDIANAPOLIS,01/05/2020 11:02:00,,1459.00,859.00,254.00,127.00,78.00,103.00,60.00,30.00,APPROVED
IN: INDIANAPOLIS,01/05/2020 12:02:00,,1472.00,855.00,258.00,129.00,80.00,103.00,57.00,32.00,APPROVED
IN: INDIANAPOLIS,01/05/2020 13:02:00,,1485.00,883.00,261.00,134.00,80.00,107.00,59.00,31.00,APPROVED
IN: INDIANAPOLIS,01/05/2020 14:03:00,,1501.00,911.00,265.00,135.00,81.00,107.00,61.00,31.00,APPROVED
IN: INDIANAPOLIS,01/05/2020 15:03:00,,1507.00,917.00,275.00,138.00,82.00,114.00,61.00,32.00,APPROVED
IN: INDIANAPOLIS,01/05/2020 16:03:00,,1508.00,911.00,270.00,138.00,85.00,111.00,61.00,32.00,APPROVED
IN: INDIANAPOLIS,01/05/2020 17:03:00,,1518.00,896.00,263.00,136.00,83.00,105.00,63.00,31.00,APPROVED
IN: INDIANAPOLIS,01/05/2020 18:03:00,,1517.00,889.00,256.00,136.00,82.00,101.00,63.00,30.00,APPROVED
IN: INDIANAPOLIS,01/05/2020 19:04:00,,1523.00,885.00,255.00,132.00,80.00,100.00,64.00,31.00,APPROVED
IN: INDIANAPOLIS,01/05/2020 20:04:00,,1524.00,883.00,252.00,132.00,81.00,100.00,61.00,32.00,APPROVED
IN: INDIANAPOLIS,01/05/2020 21:04:00,,1536.00,879.00,252.00,131.00,79.00,96.00,65.00,31.00,APPROVED
IN: INDIANAPOLIS,01/05/2020 22:04:00,,1529.00,877.00,249.00,130.00,80.00,98.00,61.00,30.00,APPROVED
IN: INDIANAPOLIS,01/05/2020 23:04:00,,1538.00,879.00,249.00,129.00,80.00,96.00,63.00,31.00,APPROVED
IN: INDIANAPOLIS,01/06/2020 00:05:00,,1534.00,887.00,250.00,130.00,79.00,98.00,64.00,30.00,APPROVED
IN: INDIANAPOLIS,01/06/2020 01:05:00,,1550.00,905.00,257.00,134.00,80.00,101.00,63.00,31.00,APPROVED
IN: INDIANAPOLIS,01/06/2020 02:05:00,,1567.00,921.00,261.00,137.00,83.00,101.00,66.00,32.00,APPROVED
IN: INDIANAPOLIS,01/06/2020 03:05:00,,1550.00,917.00,262.00,137.00,82.00,103.00,65.00,31.00,APPROVED
IN: INDIANAPOLIS,01/06/2020 04:06:00,,1545.00,924.00,263.00,139.00,83.00,105.00,65.00,31.00,APPROVED
IN: INDIANAPOLIS,01/06/2020 05:06:00,,1531.00,913.00,264.00,140.00,86.00,104.00,66.00,31.00,APPROVED
IN: INDIANAPOLIS,01/06/2020 06:06:00,,1539.00,938.00,268.00,140.00,84.00,108.00,65.00,31.00,APPROVED
IN: INDIANAPOLIS,01/06/2020 07:06:00,,1541.00,921.00,277.00,139.00,85.00,109.00,64.00,31.00,APPROVED
IN: INDIANAPOLIS,01/06/2020 08:06:00,,1525.00,908.00,266.00,135.00,83.00,107.00,62.00,30.00,APPROVED
IN: INDIANAPOLIS,01/06/2020 09:07:00,,1501.00,890.00,266.00,132.00,80.00,105.00,63.00,32.00,APPROVED
IN: INDIANAPOLIS,01/06/2020 10:07:00,,1495.00,878.00,258.00,129.00,80.00,102.00,61.00,31.00,APPROVED
IN: INDIANAPOLIS,01/06/2020 11:07:00,,1497.00,873.00,259.00,131.00,79.00,103.00,59.00,30.00,APPROVED
IN: INDIANAPOLIS,01/06/2020 12:07:00,,1508.00,891.00,261.00,130.00,81.00,104.00,60.00,31.00,APPROVED
IN: INDIANAPOLIS,01/06/2020 13:07:00,,1512.00,898.00,265.00,132.00,82.00,106.00,59.00,30.00,APPROVED
IN: INDIANAPOLIS,01/06/2020 14:08:00,,1520.00,905.00,263.00,134.00,81.00,108.00,60.00,32.00,APPROVED
IN: INDIANAPOLIS,01/06/2020 15:08:00,,1538.00,916.00,266.00,137.00,83.00,109.00,63.00,31.00,APPROVED
IN: INDIANAPOLIS,01/06/2020 16:08:00,,1552.00,921.00,266.00,137.00,84.00,107.00,63.00,31.00,APPROVED
IN: INDIANAPOLIS,01/06/2020 17:38:00,,1518.00,860.00,243.00,122.00,78.00,95.00,60.00,29.00,APPROVED
IN: INDIANAPOLIS,01/06/2020 18:39:00,,1535.00,880.00,250.00,128.00,80.00,99.00,61.00,30.00,APPROVED
IN: INDIANAPOLIS,01/06/2020 19:39:00,,1537.00,886.00,250.00,133.00,79.00,97.00,63.00,29.00,APPROVED
IN: INDIANAPOLIS,01/06/2020 20:39:00,,1527.00,884.00,246.00,128.00,79.00,96.00,64.00,29.00,APPROVED
IN: INDIANAPOLIS,01/06/2020 21:39:00,,1524.00,877.00,243.00,130.00,78.00,95.00,64.00,30.00,APPROVED
IN: INDIANAPOLIS,01/06/2020 22:40:00,,1529.00,876.00,243.00,128.00,78.00,97.00,63.00,31.00,APPROVED
IN: INDIANAPOLIS,01/06/2020 23:40:00,,1521.00,864.00,245.00,129.00,79.00,92.00,63.00,28.00,APPROVED
IN: INDIANAPOLIS,01/07/2020 00:40:00,,1523.00,899.00,254.00,133.00,83.00,100.00,63.00,30.00,APPROVED
IN: INDIANAPOLIS,01/07/2020 01:40:00,,1550.00,942.00,267.00,145.00,86.00,107.00,67.00,31.00,APPROVED
IN: INDIANAPOLIS,01/07/2020 02:40:00,,1587.00,991.00,282.00,156.00,88.00,117.00,70.00,31.00,APPROVED
IN: INDIANAPOLIS,01/07/2020 03:41:00,,1601.00,1036.00,298.00,169.00,93.00,124.00,71.00,35.00,APPROVED
IN: INDIANAPOLIS,01/07/2020 04:41:00,,1620.00,1058.00,304.00,169.00,97.00,127.00,73.00,33.00,APPROVED
IN: INDIANAPOLIS,01/07/2020 05:41:00,,1621.00,1073.00,311.00,171.00,97.00,132.00,75.00,34.00,APPROVED
IN: INDIANAPOLIS,01/07/2020 06:41:00,,1639.00,1104.00,325.00,177.00,98.00,136.00,75.00,35.00,APPROVED
IN: INDIANAPOLIS,01/07/2020 07:41:00,,1684.00,1175.00,354.00,187.00,105.00,151.00,79.00,38.00,APPROVED
IN: INDIANAPOLIS,01/07/2020 08:42:00,,1714.00,1212.00,366.00,197.00,108.00,153.00,83.00,36.00,APPROVED
IN: INDIANAPOLIS,01/07/2020 09:42:00,,1734.00,1242.00,371.00,202.00,112.00,157.00,88.00,38.00,APPROVED
IN: INDIANAPOLIS,01/07/2020 10:42:00,,1762.00,1265.00,374.00,209.00,115.00,163.00,88.00,38.00,APPROVED
IN: INDIANAPOLIS,01/07/2020 11:42:00,,1777.00,1277.00,382.00,211.00,113.00,164.00,87.00,36.00,APPROVED
IN: INDIANAPOLIS,01/07/2020 12:43:00,,1844.00,1311.00,399.00,213.00,114.00,167.00,90.00,38.00,APPROVED
IN: INDIANAPOLIS,01/07/2020 13:43:00,,1865.00,1327.00,403.00,214.00,116.00,171.00,90.00,39.00,APPROVED
IN: INDIANAPOLIS,01/07/2020 14:43:00,,1836.00,1321.00,397.00,219.00,116.00,168.00,90.00,38.00,APPROVED
IN: INDIANAPOLIS,01/07/2020 15:43:00,,1768.00,1208.00,360.00,201.00,109.00,148.00,85.00,36.00,APPROVED
IN: INDIANAPOLIS,01/07/2020 16:43:00,,1644.00,1048.00,303.00,171.00,93.00,123.00,74.00,34.00,APPROVED
IN: INDIANAPOLIS,01/07/2020 17:44:00,,1576.00,941.00,272.00,145.00,85.00,110.00,66.00,32.00,APPROVED
IN: INDIANAPOLIS,01/07/2020 18:44:00,,1526.00,901.00,259.00,137.00,81.00,99.00,64.00,31.00,APPROVED
IN: INDIANAPOLIS,01/07/2020 19:44:00,,1524.00,886.00,251.00,133.00,79.00,98.00,64.00,31.00,APPROVED
IN: INDIANAPOLIS,01/07/2020 20:44:00,,1549.00,911.00,255.00,137.00,82.00,101.00,65.00,30.00,APPROVED
IN: INDIANAPOLIS,01/07/2020 21:44:00,,1565.00,921.00,258.00,137.00,83.00,102.00,66.00,31.00,APPROVED
IN: INDIANAPOLIS,01/07/2020 22:45:00,,1549.00,906.00,259.00,136.00,82.00,102.00,64.00,30.00,APPROVED
IN: INDIANAPOLIS,01/07/2020 23:45:00,,1540.00,915.00,263.00,138.00,85.00,103.00,62.00,32.00,APPROVED
IN: INDIANAPOLIS,01/08/2020 00:45:00,,1560.00,930.00,263.00,140.00,82.00,106.00,66.00,31.00,APPROVED
IN: INDIANAPOLIS,01/08/2020 01:45:00,,1568.00,944.00,271.00,146.00,88.00,107.00,65.00,32.00,APPROVED
IN: INDIANAPOLIS,01/08/2020 02:46:00,,1583.00,950.00,272.00,141.00,86.00,110.00,66.00,31.00,APPROVED
IN: INDIANAPOLIS,01/08/2020 03:46:00,,1589.00,964.00,277.00,143.00,90.00,111.00,66.00,31.00,APPROVED
IN: INDIANAPOLIS,01/08/2020 04:46:00,,1601.00,969.00,277.00,147.00,86.00,114.00,67.00,32.00,APPROVED
IN: INDIANAPOLIS,01/08/2020 05:46:00,,1598.00,973.00,281.00,151.00,88.00,112.00,69.00,31.00,APPROVED
IN: INDIANAPOLIS,01/08/2020 06:46:00,,1603.00,971.00,280.00,149.00,88.00,114.00,67.00,32.00,APPROVED
IN: INDIANAPOLIS,01/08/2020 07:47:00,,1603.00,977.00,284.00,150.00,89.00,114.00,66.00,32.00,APPROVED
IN: INDIANAPOLIS,01/08/2020 08:47:00,,1598.00,977.00,287.00,152.00,88.00,117.00,69.00,33.00,APPROVED
IN: INDIANAPOLIS,01/08/2020 09:47:00,,1575.00,965.00,281.00,148.00,85.00,114.00,65.00,32.00,APPROVED
IN: INDIANAPOLIS,01/08/2020 10:47:00,,1529.00,920.00,273.00,138.00,84.00,112.00,63.00,33.00,APPROVED
IN: INDIANAPOLIS,01/08/2020 11:48:00,,1485.00,881.00,258.00,130.00,82.00,106.00,58.00,32.00,APPROVED
IN: INDIANAPOLIS,01/08/2020 12:48:00,,1467.00,867.00,251.00,127.00,80.00,103.00,54.00,31.00,APPROVED
IN: INDIANAPOLIS,01/08/2020 13:48:00,,1465.00,854.00,253.00,127.00,79.00,101.00,57.00,30.00,APPROVED
IN: INDIANAPOLIS,01/08/2020 14:48:00,,1470.00,862.00,256.00,126.00,78.00,103.00,56.00,31.00,APPROVED
IN: INDIANAPOLIS,01/08/2020 15:48:00,,1494.00,876.00,257.00,129.00,78.00,104.00,56.00,30.00,APPROVED
IN: INDIANAPOLIS,01/08/2020 16:49:00,,1485.00,873.00,256.00,128.00,80.00,103.00,56.00,32.00,APPROVED
IN: INDIANAPOLIS,01/08/2020 17:49:00,,1485.00,863.00,251.00,125.00,78.00,103.00,57.00,31.00,APPROVED
IN: INDIANAPOLIS,01/08/2020 18:49:00,,1491.00,857.00,251.00,126.00,79.00,100.00,58.00,30.00,APPROVED
IN: INDIANAPOLIS,01/08/2020 19:49:00,,1497.00,867.00,250.00,126.00,80.00,98.00,60.00,29.00,APPROVED
IN: INDIANAPOLIS,01/08/2020 20:49:00,,1509.00,861.00,249.00,127.00,79.00,99.00,60.00,31.00,APPROVED
IN: INDIANAPOLIS,01/08/2020 21:50:00,,1508.00,862.00,246.00,124.00,76.00,98.00,58.00,32.00,APPROVED
IN: INDIANAPOLIS,01/08/2020 22:50:00,,1500.00,872.00,250.00,128.00,80.00,97.00,59.00,32.00,APPROVED
IN: INDIANAPOLIS,01/08/2020 23:50:00,,1491.00,858.00,249.00,127.00,78.00,98.00,60.00,30.00,APPROVED
IN: INDIANAPOLIS,01/09/2020 00:50:00,,1490.00,859.00,254.00,126.00,79.00,100.00,58.00,30.00,APPROVED
IN: INDIANAPOLIS,01/09/2020 01:51:00,,1493.00,871.00,253.00,127.00,79.00,103.00,59.00,30.00,APPROVED
IN: INDIANAPOLIS,01/09/2020 02:51:00,,1488.00,885.00,257.00,129.00,81.00,106.00,59.00,33.00,APPROVED
IN: INDIANAPOLIS,01/09/2020 03:51:00,,1511.00,899.00,265.00,132.00,83.00,109.00,58.00,31.00,APPROVED
IN: INDIANAPOLIS,01/09/2020 04:51:00,,1521.00,908.00,267.00,138.00,83.00,108.00,60.00,30.00,APPROVED
IN: INDIANAPOLIS,01/09/2020 05:51:00,,1532.00,920.00,271.00,135.00,84.00,108.00,61.00,32.00,APPROVED
IN: INDIANAPOLIS,01/09/2020 06:52:00,,1531.00,925.00,280.00,137.00,86.00,113.00,61.00,32.00,APPROVED
IN: INDIANAPOLIS,01/09/2020 07:52:00,,1557.00,939.00,277.00,138.00,84.00,113.00,62.00,31.00,APPROVED
IN: INDIANAPOLIS,01/09/2020 08:52:00,,1556.00,944.00,278.00,140.00,83.00,112.00,61.00,32.00,APPROVED
IN: INDIANAPOLIS,01/09/2020 09:52:00,,1544.00,926.00,276.00,137.00,82.00,112.00,59.00,32.00,APPROVED
IN: INDIANAPOLIS,01/09/2020 10:52:00,,1538.00,924.00,275.00,137.00,84.00,111.00,60.00,31.00,APPROVED
IN: INDIANAPOLIS,01/09/2020 11:53:00,,1535.00,924.00,270.00,136.00,84.00,109.00,59.00,32.00,APPROVED
IN: INDIANAPOLIS,01/09/2020 12:53:00,,1540.00,916.00,272.00,134.00,85.00,112.00,59.00,31.00,APPROVED
IN: INDIANAPOLIS,01/09/2020 13:53:00,,1539.00,921.00,271.00,136.00,83.00,112.00,61.00,31.00,APPROVED
IN: INDIANAPOLIS,01/09/2020 14:53:00,,1539.00,929.00,275.00,137.00,83.00,111.00,60.00,31.00,APPROVED
IN: INDIANAPOLIS,01/09/2020 15:54:00,,1570.00,939.00,277.00,137.00,85.00,111.00,62.00,31.00,APPROVED
IN: INDIANAPOLIS,01/09/2020 16:54:00,,1583.00,955.00,273.00,143.00,84.00,112.00,65.00,30.00,APPROVED
IN: INDIANAPOLIS,01/09/2020 18:28:00,,1563.00,891.00,249.00,129.00,78.00,97.00,63.00,29.00,APPROVED
IN: INDIANAPOLIS,01/09/2020 19:21:00,,1591.00,921.00,259.00,138.00,84.00,103.00,64.00,31.00,APPROVED
IN: INDIANAPOLIS,01/09/2020 20:22:00,,1557.00,907.00,253.00,135.00,82.00,99.00,64.00,31.00,APPROVED
IN: INDIANAPOLIS,01/09/2020 21:22:00,,1520.00,878.00,245.00,132.00,78.00,97.00,63.00,29.00,APPROVED
IN: INDIANAPOLIS,01/09/2020 22:22:00,,1526.00,877.00,246.00,132.00,78.00,95.00,63.00,29.00,APPROVED
IN: INDIANAPOLIS,01/09/2020 23:22:00,,1527.00,878.00,241.00,128.00,78.00,98.00,62.00,30.00,APPROVED
IN: INDIANAPOLIS,01/10/2020 00:22:00,,1550.00,880.00,248.00,131.00,81.00,97.00,64.00,31.00,APPROVED
IN: INDIANAPOLIS,01/10/2020 01:23:00,,1571.00,906.00,259.00,139.00,83.00,100.00,64.00,30.00,APPROVED
IN: INDIANAPOLIS,01/10/2020 02:23:00,,1641.00,979.00,271.00,148.00,84.00,109.00,69.00,30.00,APPROVED
IN: INDIANAPOLIS,01/10/2020 03:23:00,,1716.00,1047.00,289.00,159.00,89.00,115.00,74.00,32.00,APPROVED
IN: INDIANAPOLIS,01/10/2020 04:23:00,,1612.00,962.00,269.00,149.00,86.00,106.00,68.00,33.00,APPROVED
IN: INDIANAPOLIS,01/10/2020 05:24:00,,1681.00,1018.00,275.00,152.00,85.00,109.00,68.00,31.00,APPROVED
IN: INDIANAPOLIS,01/10/2020 06:24:00,,1828.00,1150.00,314.00,176.00,95.00,126.00,76.00,34.00,APPROVED
IN: INDIANAPOLIS,01/10/2020 07:24:00,,1912.00,1223.00,337.00,185.00,102.00,132.00,79.00,34.00,APPROVED
IN: INDIANAPOLIS,01/10/2020 08:24:00,,1895.00,1193.00,330.00,184.00,101.00,131.00,78.00,34.00,APPROVED
IN: INDIANAPOLIS,01/10/2020 09:24:00,,1984.00,1268.00,350.00,198.00,105.00,141.00,81.00,33.00,APPROVED
IN: INDIANAPOLIS,01/10/2020 10:25:00,,1939.00,1230.00,343.00,194.00,103.00,134.00,81.00,35.00,APPROVED
IN: INDIANAPOLIS,01/10/2020 11:25:00,,1838.00,1154.00,323.00,180.00,97.00,128.00,76.00,34.00,APPROVED
IN: INDIANAPOLIS,01/10/2020 12:25:00,,1830.00,1150.00,323.00,179.00,98.00,129.00,77.00,34.00,APPROVED
IN: INDIANAPOLIS,01/10/2020 13:25:00,,1845.00,1145.00,319.00,182.00,96.00,128.00,76.00,35.00,APPROVED
IN: INDIANAPOLIS,01/10/2020 14:25:00,,1697.00,1038.00,293.00,160.00,91.00,113.00,73.00,33.00,APPROVED
IN: INDIANAPOLIS,01/10/2020 15:26:00,,1580.00,942.00,263.00,146.00,86.00,103.00,67.00,32.00,APPROVED
IN: INDIANAPOLIS,01/10/2020 16:26:00,,1790.00,1114.00,309.00,168.00,95.00,121.00,74.00,34.00,APPROVED
IN: INDIANAPOLIS,01/10/2020 17:26:00,,1919.00,1227.00,337.00,194.00,102.00,136.00,79.00,36.00,APPROVED
IN: INDIANAPOLIS,01/10/2020 18:26:00,,1840.00,1155.00,320.00,181.00,98.00,129.00,79.00,33.00,APPROVED
IN: INDIANAPOLIS,01/10/2020 19:27:00,,1757.00,1081.00,299.00,166.00,93.00,117.00,73.00,33.00,APPROVED